User: anonymous   Login
Location: Kunchanapalle
(16.4623°N, 80.6176°E)
Time: 04:45:27
(UTC+00:00)
Language:

Cosmos 1315 Rocket - Orbit

View from above orbital plane
View from above orbital plane
View from above satellite
View from above satellite

Ground track
Ground track

The orbit data is extracted from the following two-line orbital elements,

1 12904U 81103B   20304.46253117 -.00000142  00000-0 -11316-4 0  9992
2 12904  81.1745 308.6549 0027361 334.2586  25.7273 15.05859715678091
Epoch (UTC): 30 October 2020 11:06:02
Eccentricity: 0.0027361
inclination: 81.1745°
perigee height: 530 km
apogee height: 568 km
right ascension of ascending node: 308.6549°
argument of perigee: 334.2586°
revolutions per day: 15.05859715
mean anomaly at epoch: 25.7273°
orbit number at epoch: 67809

The dashed part of the orbit path shows where the satellite is in the earth's shadow,  

DLR